Location: Piotrkow Trybunalski
(51.4000°N, 19.6830°E)
Time: 17:15:24
(UTC+01:00)

Transit 2A Rocket - All Passes

Search period start: 29 January 2023 00:00
Search period end: 08 February 2023 00:00
Orbit: 585 x 915 km, 66.7° (Epoch: 29 January)

Date Brightness Start Highest point End Pass type
(mag) Time Alt. Az. Time Alt. Az. Time Alt. Az.
29 Jan - 01:38:40 10° SW 01:43:41 63° NW 01:49:15 10° NE visible
29 Jan - 03:23:11 10° WNW 03:27:24 23° NNW 03:31:54 10° NNE visible
29 Jan - 05:08:20 10° NW 05:12:02 17° N 05:15:54 10° NE visible
29 Jan - 06:51:36 10° NNW 06:56:33 28° NNE 07:01:41 10° E daylight
29 Jan - 08:34:04 10° NW 08:40:02 78° NE 08:46:10 10° SE daylight
29 Jan - 10:17:20 10° WNW 10:22:11 26° WSW 10:27:05 10° SSW daylight
29 Jan - 23:15:43 10° SE 23:18:52 17° ESE 23:22:12 10° ENE night (unlit)
30 Jan - 00:55:32 10° SW 01:00:33 88° SE 01:06:09 10° NE visible
30 Jan - 02:39:21 10° W 02:43:53 28° NNW 02:48:47 10° NNE visible
30 Jan - 04:24:41 10° NW 04:28:22 17° N 04:32:12 10° NE visible
30 Jan - 06:08:30 10° NNW 06:13:01 23° NNE 06:17:44 10° ENE visible
30 Jan - 07:51:01 10° NW 07:56:51 56° NE 08:02:51 10° ESE daylight
30 Jan - 09:33:52 10° NW 09:39:22 39° WSW 09:44:59 10° S daylight
31 Jan - 00:12:41 10° SSW 00:17:34 57° ESE 00:22:59 10° NE night (unlit)
31 Jan - 01:55:40 10° WSW 02:00:28 37° NW 02:05:43 10° NNE visible
31 Jan - 03:40:53 10° NW 03:44:41 19° N 03:48:42 10° NNE visible
31 Jan - 05:25:17 10° NNW 05:29:25 20° NNE 05:33:44 10° ENE visible
31 Jan - 07:08:00 10° NNW 07:13:33 41° NE 07:19:19 10° ESE daylight
31 Jan - 08:50:36 10° NW 08:56:28 59° WSW 09:02:27 10° SSE daylight
31 Jan - 10:35:35 10° WNW 10:37:59 12° WSW 10:40:24 10° SW daylight
31 Jan - 23:30:10 10° S 23:34:43 36° ESE 23:39:41 10° NE night (unlit)
01 Feb - 01:12:09 10° WSW 01:17:09 51° NW 01:22:39 10° NNE visible
01 Feb - 02:57:00 10° WNW 03:01:04 21° NNW 03:05:24 10° NNE visible
01 Feb - 04:41:56 10° NW 04:45:47 18° N 04:49:46 10° NE visible
01 Feb - 06:24:57 10° NNW 06:30:10 32° NNE 06:35:34 10° E visible
01 Feb - 08:07:27 10° NW 08:13:26 85° SW 08:19:35 10° SSE daylight
01 Feb - 09:51:06 10° WNW 09:55:21 20° WSW 09:59:38 10° SSW daylight
01 Feb - 22:48:07 10° SSE 22:51:59 23° ESE 22:56:07 10° ENE night (unlit)
02 Feb - 00:28:52 10° SW 00:33:57 74° NW 00:39:34 10° NE visible
02 Feb - 02:13:06 10° W 02:17:31 25° NNW 02:22:13 10° NNE visible
02 Feb - 03:58:23 10° NW 04:02:06 17° N 04:05:58 10° NE visible
02 Feb - 05:41:53 10° NNW 05:46:41 26° NNE 05:51:40 10° E visible
02 Feb - 07:24:22 10° NW 07:30:19 68° NE 07:36:25 10° SE daylight
02 Feb - 09:07:26 10° NW 09:12:37 31° WSW 09:17:51 10° S daylight
02 Feb - 22:06:51 10° SE 22:09:22 14° ESE 22:11:59 10° ENE night (unlit)
02 Feb - 23:45:50 10° SSW 23:50:52 75° SE 23:56:28 10° NE night (unlit)
03 Feb - 01:29:20 10° W 01:34:02 32° NNW 01:39:07 10° NNE visible
03 Feb - 03:14:39 10° NW 03:18:25 18° N 03:22:22 10° NE visible
03 Feb - 04:58:44 10° NNW 05:03:08 22° NNE 05:07:41 10° ENE visible
03 Feb - 06:41:20 10° NNW 06:47:05 49° NE 06:53:01 10° ESE visible
03 Feb - 08:24:04 10° NW 08:29:46 46° WSW 08:35:34 10° S daylight
03 Feb - 23:03:07 10° S 23:07:56 48° ESE 23:13:14 10° NE night (unlit)
04 Feb - 00:45:42 10° WSW 00:50:38 42° NW 00:56:03 10° NNE visible
04 Feb - 02:30:48 10° WNW 02:34:45 20° NNW 02:38:57 10° NNE visible
04 Feb - 04:15:27 10° NNW 04:19:30 19° NNE 04:23:41 10° ENE visible
04 Feb - 05:58:18 10° NNW 06:03:45 37° NE 06:09:22 10° ESE visible
04 Feb - 07:40:51 10° NW 07:46:49 69° WSW 07:52:53 10° SSE daylight
04 Feb - 09:25:07 10° WNW 09:28:29 15° WSW 09:31:52 10° SW daylight
04 Feb - 22:20:46 10° S 22:25:06 30° ESE 22:29:51 10° NE night (unlit)
05 Feb - 00:02:17 10° SW 00:07:22 59° NW 00:12:59 10° NE night (unlit)
05 Feb - 01:46:54 10° WNW 01:51:09 23° NNW 01:55:41 10° NNE visible
05 Feb - 03:32:00 10° NW 03:35:50 18° N 03:39:47 10° NE visible
05 Feb - 05:15:14 10° NNW 05:20:19 29° NNE 05:25:34 10° E visible
05 Feb - 06:57:43 10° NW 07:03:45 83° NE 07:09:53 10° SE daylight
05 Feb - 08:41:06 10° WNW 08:45:49 24° WSW 08:50:33 10° SSW daylight
05 Feb - 21:38:57 10° SSE 21:42:26 19° ESE 21:46:08 10° ENE night (unlit)
05 Feb - 23:19:06 10° SW 23:24:12 86° NW 23:29:54 10° NE night (unlit)
06 Feb - 01:03:03 10° W 01:07:37 28° NNW 01:12:32 10° NNE visible
06 Feb - 02:48:23 10° NW 02:52:08 18° N 02:56:03 10° NE visible
06 Feb - 04:32:07 10° NNW 04:36:47 24° NNE 04:41:37 10° ENE visible
06 Feb - 06:14:40 10° NW 06:20:35 60° NE 06:26:37 10° SE visible
06 Feb - 07:57:34 10° NW 08:03:02 37° WSW 08:08:32 10° S daylight
06 Feb - 20:58:24 10° ESE 20:59:52 11° E 21:01:21 10° E night (unlit)
06 Feb - 22:36:11 10° SSW 22:41:11 63° ESE 22:46:44 10° NE night (unlit)
07 Feb - 00:19:19 10° W 00:24:10 35° NW 00:29:27 10° NNE visible
07 Feb - 02:04:35 10° NW 02:08:28 19° N 02:12:31 10° NE visible
07 Feb - 03:48:55 10° NNW 03:53:12 20° NNE 03:57:37 10° ENE visible
07 Feb - 05:31:37 10° NNW 05:37:17 44° NE 05:43:07 10° ESE visible
07 Feb - 07:14:16 10° NW 07:20:08 55° WSW 07:26:04 10° SSE daylight
07 Feb - 08:59:45 10° W 09:01:34 11° W 09:03:22 10° WSW daylight
07 Feb - 21:53:35 10° S 21:58:18 40° ESE 22:03:26 10° NE night (unlit)
07 Feb - 23:35:46 10° WSW 23:40:49 48° NW 23:46:22 10° NNE night (unlit)
